User: anonymous   Login
Location: Unspecified
(0.0000°N, 0.0000°E)
Time: 06:21:57
(UTC+00:00)
Language:

MOZHAYETS 4 - Orbit

View from above orbital plane
View from above orbital plane
View from above satellite
View from above satellite

Ground track
Ground track

The orbit data is extracted from the following two-line orbital elements,

1 27939U 03042A   18267.92529733 +.00000095 +00000-0 +25621-4 0  9997
2 27939 098.0052 044.5672 0012821 186.7399 289.0661 14.66717360801294
Epoch (UTC): 24 September 2018 22:12:25
Eccentricity: 0.0012821
inclination: 98.0052°
perigee height: 662 km
apogee height: 680 km
right ascension of ascending node: 44.5672°
argument of perigee: 186.7399°
revolutions per day: 14.66717360
mean anomaly at epoch: 289.0661°
orbit number at epoch: 80129

The dashed part of the orbit path shows where the satellite is in the earth's shadow,  

DLR